timestamp,surface_pressure_avg,surface_temp_avg,battery_voltage,lat,long
2023-12-19 00:09:00+00:00,230.9731,4.7,11.53,47.84626,-54.09684
2023-12-19 00:19:00+00:00,228.2564,4.7,11.53,47.84626,-54.09684
2023-12-19 00:29:00+00:00,225.5997,4.7,11.53,47.84626,-54.09684
2023-12-19 00:39:00+00:00,232.7014,4.7,11.53,47.84626,-54.09684
2023-12-19 00:49:00+00:00,233.0848,4.7,11.53,47.84626,-54.09684
2023-12-19 00:59:00+00:00,228.0514,4.7,11.53,47.84626,-54.09684
2023-12-19 01:09:00+00:00,235.7181,4.7,11.53,47.84626,-54.09684
2023-12-19 01:19:00+00:00,245.9015,4.7,11.53,47.84626,-54.09684
2023-12-19 01:29:00+00:00,249.3031,4.7,11.53,47.84626,-54.09684
2023-12-19 01:39:00+00:00,252.3648,4.7,11.53,47.84626,-54.09684
2023-12-19 01:49:00+00:00,262.0014,4.7,11.53,47.84626,-54.09684
2023-12-19 01:59:00+00:00,273.563,4.7,11.53,47.84626,-54.09684
2023-12-19 02:09:00+00:00,274.8181,4.7,11.53,47.84626,-54.09684
2023-12-19 02:19:00+00:00,275.1464,4.7,11.53,47.84626,-54.09684
2023-12-19 02:29:00+00:00,287.7313,4.7,11.53,47.84626,-54.09684
2023-12-19 02:39:00+00:00,303.4797,4.7,11.53,47.84626,-54.09684
2023-12-19 02:49:00+00:00,303.5797,4.7,11.53,47.84626,-54.09684
2023-12-19 02:59:00+00:00,303.5197,4.7,11.53,47.84626,-54.09684
2023-12-19 03:09:00+00:00,310.3397,4.7,11.53,47.84626,-54.09684
2023-12-19 03:19:00+00:00,315.7629,4.7,11.53,47.84626,-54.09684
2023-12-19 03:29:00+00:00,313.763,4.7,11.53,47.84626,-54.09684
2023-12-19 03:39:00+00:00,318.5547,4.7,11.53,47.84626,-54.09684
2023-12-19 03:49:00+00:00,322.0829,4.7,11.53,47.84626,-54.09684
2023-12-19 03:59:00+00:00,324.658,4.7,11.53,47.84626,-54.09684
2023-12-19 04:09:00+00:00,321.2297,4.7,11.53,47.84626,-54.09684
2023-12-19 04:19:01+00:00,323.3896,4.7,11.53,47.84626,-54.09684
2023-12-19 04:29:01+00:00,329.533,4.7,11.53,47.84626,-54.09684
2023-12-19 04:39:01+00:00,336.2881,4.7,11.53,47.84626,-54.09684
2023-12-19 04:49:01+00:00,331.6097,4.7,11.53,47.84626,-54.09684
2023-12-19 04:59:01+00:00,334.5312,4.7,11.53,47.84626,-54.09684
2023-12-19 05:09:01+00:00,335.7346,4.7,11.53,47.84626,-54.09684
2023-12-19 05:19:00+00:00,332.1647,4.7,11.53,47.84626,-54.09684
2023-12-19 05:29:00+00:00,326.323,4.7,11.53,47.84626,-54.09684
2023-12-19 05:39:00+00:00,324.4279,4.7,11.53,47.84626,-54.09684
2023-12-19 05:49:00+00:00,324.2247,4.7,11.53,47.84626,-54.09684
2023-12-19 05:59:00+00:00,321.5297,4.7,11.53,47.84626,-54.09684
2023-12-19 06:09:00+00:00,319.9296,4.7,11.53,47.84626,-54.09684
2023-12-19 06:19:00+00:00,312.608,4.7,11.53,47.84626,-54.09684
2023-12-19 06:29:00+00:00,309.2347,4.7,11.53,47.84626,-54.09684
2023-12-19 06:39:00+00:00,303.0947,4.73,11.53,47.84626,-54.09684
2023-12-19 06:49:00+00:00,291.9097,4.77,11.53,47.84626,-54.09684
2023-12-19 06:59:00+00:00,285.9997,4.75,11.53,47.84626,-54.09684
2023-12-19 07:09:00+00:00,278.8364,4.75,11.53,47.84626,-54.09684
2023-12-19 07:19:01+00:00,263.4081,4.7,11.53,47.84626,-54.09684
2023-12-19 07:29:01+00:00,248.9715,4.7,11.53,47.84626,-54.09684
2023-12-19 07:39:01+00:00,240.4197,4.7,11.53,47.84626,-54.09684
2023-12-19 07:49:01+00:00,230.8914,4.7,11.53,47.84626,-54.09684
2023-12-19 07:59:01+00:00,225.6165,4.72,11.53,47.84626,-54.09684
2023-12-19 08:09:01+00:00,224.1214,4.75,11.53,47.84626,-54.09684
2023-12-19 08:19:00+00:00,221.6914,4.75,11.53,47.84626,-54.09684
2023-12-19 08:29:00+00:00,216.1848,4.72,11.53,47.84626,-54.09684
2023-12-19 08:39:00+00:00,209.7648,4.72,11.53,47.84626,-54.09684
2023-12-19 08:49:00+00:00,205.5131,4.73,11.53,47.84626,-54.09684
2023-12-19 08:59:00+00:00,201.5148,4.75,11.53,47.84626,-54.09684
2023-12-19 09:09:00+00:00,199.2031,4.77,11.53,47.84626,-54.09684
2023-12-19 09:19:00+00:00,199.2348,4.78,11.53,47.84626,-54.09684
2023-12-19 09:29:00+00:00,200.9531,4.79,11.53,47.84626,-54.09684
2023-12-19 09:39:00+00:00,202.1797,4.8,11.53,47.84626,-54.09684
2023-12-19 09:49:00+00:00,201.0081,4.79,11.53,47.84626,-54.09684
2023-12-19 09:59:00+00:00,197.0464,4.79,11.53,47.84626,-54.09684
2023-12-19 10:09:00+00:00,195.1915,4.79,11.53,47.84626,-54.09684
2023-12-19 10:19:00+00:00,194.7781,4.8,11.53,47.84626,-54.09684
2023-12-19 10:29:00+00:00,197.3431,4.8,11.53,47.84626,-54.09684
2023-12-19 10:39:00+00:00,201.0598,4.8,11.53,47.84626,-54.09684
2023-12-19 10:49:00+00:00,201.0614,4.8,11.53,47.84626,-54.09684
2023-12-19 10:59:00+00:00,201.1398,4.8,11.53,47.84626,-54.09684
2023-12-19 11:09:00+00:00,198.9698,4.8,11.53,47.84626,-54.09684
2023-12-19 11:19:00+00:00,201.4281,4.8,11.53,47.84626,-54.09684
2023-12-19 11:29:00+00:00,212.1165,4.8,11.53,47.84626,-54.09684
2023-12-19 11:39:00+00:00,222.5047,4.8,11.53,47.84626,-54.09684
2023-12-19 11:49:00+00:00,222.7931,4.8,11.53,47.84626,-54.09684
2023-12-19 11:59:00+00:00,222.4915,4.77,11.53,47.84626,-54.09684
2023-12-19 12:09:00+00:00,227.5014,4.8,11.53,47.84626,-54.09684
2023-12-19 12:19:00+00:00,226.4714,4.8,11.53,47.84626,-54.09684
2023-12-19 12:29:00+00:00,222.2614,4.79,11.53,47.84626,-54.09684
2023-12-19 12:39:00+00:00,226.3231,4.8,11.53,47.84626,-54.09684
2023-12-19 12:49:00+00:00,232.0931,4.8,11.53,47.84626,-54.09684
2023-12-19 12:59:00+00:00,230.4764,4.8,11.53,47.84626,-54.09684
2023-12-19 13:09:00+00:00,228.3064,4.8,11.53,47.84626,-54.09684
2023-12-19 13:19:00+00:00,233.2981,4.88,11.53,47.84626,-54.09684
2023-12-19 13:29:00+00:00,239.5714,4.9,11.53,47.84626,-54.09684
2023-12-19 13:39:00+00:00,238.9715,4.8,11.53,47.84626,-54.09684
2023-12-19 13:49:00+00:00,241.3681,4.8,11.53,47.84626,-54.09684
2023-12-19 13:59:00+00:00,251.7481,4.89,11.53,47.84626,-54.09684
2023-12-19 14:09:00+00:00,264.8214,4.9,11.53,47.84626,-54.09684
2023-12-19 14:19:01+00:00,267.0214,4.82,11.53,47.84626,-54.09684
2023-12-19 14:29:01+00:00,268.9781,4.8,11.53,47.84626,-54.09684
2023-12-19 14:39:01+00:00,282.8113,4.87,11.53,47.84626,-54.09684
2023-12-19 14:49:01+00:00,298.6346,4.9,11.53,47.84626,-54.09684
2023-12-19 14:59:01+00:00,302.2531,4.89,11.53,47.84626,-54.09684
2023-12-19 15:09:01+00:00,305.1664,4.9,11.53,47.84626,-54.09684
2023-12-19 15:19:00+00:00,313.9714,4.88,11.53,47.84626,-54.09684
2023-12-19 15:29:00+00:00,324.168,4.88,11.53,47.84626,-54.09684
2023-12-19 15:39:00+00:00,326.6447,4.88,11.53,47.84626,-54.09684
2023-12-19 15:49:00+00:00,326.3762,4.86,11.53,47.84626,-54.09684
2023-12-19 15:59:00+00:00,329.7213,4.8,11.53,47.84626,-54.09684
2023-12-19 16:09:00+00:00,332.2846,4.8,11.53,47.84626,-54.09684
2023-12-19 16:19:00+00:00,331.2181,4.8,11.53,47.84626,-54.09684
2023-12-19 16:29:00+00:00,335.1479,4.82,11.53,47.84626,-54.09684
2023-12-19 16:39:00+00:00,336.6597,4.83,11.53,47.84626,-54.09684
2023-12-19 16:49:00+00:00,334.3896,4.86,11.53,47.84626,-54.09684
2023-12-19 16:59:00+00:00,335.0629,4.87,11.53,47.84626,-54.09684
2023-12-19 17:09:00+00:00,337.8846,4.86,11.53,47.84626,-54.09684
2023-12-19 17:19:00+00:00,335.5763,4.89,11.53,47.84626,-54.09684
2023-12-19 17:29:00+00:00,331.1996,4.9,11.53,47.84626,-54.09684
2023-12-19 17:39:00+00:00,332.5163,4.9,11.53,47.84626,-54.09684
2023-12-19 17:49:00+00:00,333.1663,4.9,11.53,47.84626,-54.09684
2023-12-19 17:59:00+00:00,327.673,4.9,11.53,47.84626,-54.09684
2023-12-19 18:09:00+00:00,325.9947,4.9,11.53,47.84626,-54.09684
2023-12-19 18:19:00+00:00,326.4279,4.9,11.53,47.84626,-54.09684
2023-12-19 18:29:00+00:00,319.7313,4.9,11.53,47.84626,-54.09684
2023-12-19 18:39:00+00:00,310.663,4.9,11.53,47.84626,-54.09684
2023-12-19 18:49:00+00:00,308.828,4.9,11.53,47.84626,-54.09684
2023-12-19 18:59:00+00:00,306.7114,4.9,11.53,47.84626,-54.09684
2023-12-19 19:09:00+00:00,294.6747,4.9,11.53,47.84626,-54.09684
2023-12-19 19:19:01+00:00,279.9697,4.9,11.53,47.84626,-54.09684
2023-12-19 19:29:01+00:00,269.6281,4.9,11.53,47.84626,-54.09684
2023-12-19 19:39:01+00:00,266.2014,4.9,11.53,47.84626,-54.09684
2023-12-19 19:49:01+00:00,260.4147,4.9,11.53,47.84626,-54.09684
2023-12-19 19:59:01+00:00,251.0731,4.9,11.53,47.84626,-54.09684
2023-12-19 20:09:01+00:00,240.4047,4.9,11.53,47.84626,-54.09684
2023-12-19 20:19:00+00:00,230.2331,4.9,11.53,47.84626,-54.09684
2023-12-19 20:29:00+00:00,223.7198,4.9,11.53,47.84626,-54.09684
2023-12-19 20:39:00+00:00,218.2264,4.9,11.53,47.84626,-54.09684
2023-12-19 20:49:00+00:00,211.1581,4.9,11.53,47.84626,-54.09684
2023-12-19 20:59:00+00:00,208.2831,4.9,11.53,47.84626,-54.09684
2023-12-19 21:09:00+00:00,211.0431,4.93,11.53,47.84626,-54.09684
2023-12-19 21:19:00+00:00,210.2864,4.9,11.53,47.84626,-54.09684
2023-12-19 21:29:00+00:00,204.3331,4.9,11.53,47.84626,-54.09684
2023-12-19 21:39:00+00:00,202.3414,4.9,11.53,47.84626,-54.09684
2023-12-19 21:49:00+00:00,201.4465,4.94,11.53,47.84626,-54.09684
2023-12-19 21:59:00+00:00,199.6281,4.96,11.53,47.84626,-54.09684
2023-12-19 22:09:00+00:00,203.7214,4.99,11.53,47.84626,-54.09684
2023-12-19 22:19:00+00:00,208.5798,5.0,11.53,47.84626,-54.09684
2023-12-19 22:29:00+00:00,206.7881,4.9,11.53,47.84626,-54.09684
2023-12-19 22:39:00+00:00,202.5114,4.9,11.53,47.84626,-54.09684
2023-12-19 22:49:00+00:00,201.3331,4.9,11.53,47.84626,-54.09684
2023-12-19 22:59:00+00:00,200.3181,4.9,11.53,47.84626,-54.09684
2023-12-19 23:09:00+00:00,202.9414,4.96,11.53,47.84626,-54.09684
2023-12-19 23:19:00+00:00,205.9381,4.95,11.53,47.84626,-54.09684
2023-12-19 23:29:00+00:00,207.8381,4.9,11.53,47.84626,-54.09684
2023-12-19 23:39:00+00:00,207.6765,4.9,11.53,47.84626,-54.09684
2023-12-19 23:49:00+00:00,208.6765,4.9,11.53,47.84626,-54.09684
2023-12-19 23:59:00+00:00,212.4748,4.91,11.53,47.84626,-54.09684
